[[{"header":{"parameterUnit":"m.s-1","parameterCategory":1,"la1":30.2991,"la2":30.254,"lo1":-89.0895,"lo2":-89.0444,"dy":0.0017,"dx":0.0017,"nx":28,"ny":28,"refTime":"2024-10-10T09:00:00:Z","depth":0,"parameterNumber":2,"parameterNumberName":"U-component_of_WINDS"},"data":[0,0,0,0,0,0,0,0,0,0,0,0,0,0,0,0,0,0,0,0,0,0,0,0,0,0,0,0,0,0,0,0,0,0,0,0,0,0,0,0,0,0,0,0,0,0,0,0,0,0,0,0,0,0,0,0,0,0,-1.8673,-1.8674,0,-1.8765,-1.8766,-1.8767,-1.8715,-1.8713,-1.871,-1.8708,-1.8807,-1.8812,-1.8817,0,0,0,0,0,0,0,0,0,0,0,0,0,-1.8458,-1.8462,-1.8673,-1.8675,-1.8676,-1.8765,-1.8766,-1.8767,-1.8716,-1.8713,-1.871,-1.8707,-1.8806,-1.8812,-1.8818,0,0,0,0,0,0,0,0,0,0,0,0,0,-1.8551,-1.8464,-1.8673,-1.866,-1.866,-1.8765,-1.8766,-1.8768,-1.8716,-1.8713,-1.8709,-1.8705,-1.8804,-1.8811,-1.8819,-1.8942,0,0,-1.8842,-1.8845,0,0,0,0,0,0,0,0,-1.8546,-1.8559,-1.8661,-1.8662,-1.8661,-1.8725,-1.8727,-1.8827,-1.8717,-1.8695,-1.8708,-1.8703,-1.8783,-1.8792,-1.8818,-1.8947,-1.8951,-1.8842,-1.8847,-1.885,-1.8852,0,0,0,0,0,0,0,-1.8539,-1.8555,-1.871,-1.8663,-1.8663,-1.8652,-1.8661,-1.8745,-1.876,-1.8697,-1.8693,-1.8705,-1.8783,-1.8811,-1.882,-1.8953,-1.8842,-1.8849,-1.8854,-1.8857,-1.9188,-1.9193,0,0,0,0,0,0,-1.8533,-1.855,-1.8707,-1.8713,-1.8593,-1.8659,-1.8669,-1.8708,-1.8759,-1.8763,-1.8708,-1.8702,-1.88,-1.8811,-1.8824,-1.8973,-1.885,-1.8857,-1.8862,-1.9184,-1.9189,-1.9194,0,0,0,0,0,0,-1.8529,-1.8548,-1.8703,-1.863,-1.8649,-1.8666,-1.8712,-1.8712,-1.874,-1.8767,-1.877,-1.8734,-1.8797,-1.8813,-1.8913,-1.8976,-1.8861,-1.8868,-1.9179,-1.9186,-1.9192,-1.9272,0,0,0,0,0,0,-1.8523,-1.8546,-1.8593,-1.8632,-1.8653,-1.879,-1.8715,-1.8717,-1.8753,-1.8746,-1.8792,-1.8796,-1.8796,-1.8902,-1.8921,-1.8984,-1.8874,-1.9174,-1.9182,-1.919,-1.9264,-1.928,-1.9294,0,0,0,0,0,-1.8515,-1.8613,-1.8595,-1.8615,-1.8711,-1.8794,-1.8806,-1.8802,-1.8758,-1.8806,-1.8823,-1.8795,-1.8965,-1.8913,-1.8933,-1.9,-1.917,-1.918,-1.9189,-1.9257,-1.9277,-1.9294,0,0,0,0,0,0,-1.8583,-1.8618,-1.8599,-1.8712,-1.875,-1.8785,-1.8845,-1.8823,-1.8877,-1.8868,-1.8862,-1.8873,-1.8977,-1.8998,-1.8939,-1.9122,-1.9061,-1.9075,-1.9105,-1.9125,-1.914,-1.9134,-1.888,0,0,0,0,0,-1.8611,-1.8674,-1.8701,-1.8798,-1.8818,-1.8828,-1.8864,-1.8857,-1.8897,-1.8914,-1.8938,-1.898,-1.9042,-1.9084,-1.9143,-1.9265,-1.9276,-1.9321,-1.9336,-1.9349,-1.9362,-1.9429,-1.945,-1.9226,-1.9226,-1.9225,0,0,-1.867,-1.8696,-1.8737,-1.8812,-1.8841,-1.8908,-1.8842,-1.8915,-1.8965,-1.8925,-1.9021,-1.904,-1.9086,-1.9198,-1.9249,-1.9219,-1.9426,-1.9361,-1.9371,-1.9378,-1.9441,-1.9463,-1.9482,-1.9232,-1.9231,-1.923,0,0,-1.8812,-1.8837,-1.8921,-1.8951,-1.8994,-1.9,-1.902,-1.9058,-1.9069,-1.9164,-1.9136,-1.9195,-1.9303,-1.9337,-1.9369,-1.9521,-1.9499,-1.9541,-1.9622,-1.9687,-1.9705,-1.9721,-1.9777,-1.9797,-1.9553,-1.9554,-1.9554,0,-1.8881,-1.8978,-1.8967,-1.9043,-1.9077,-1.9041,-1.9127,-1.9157,-1.9218,-1.9244,-1.9208,-1.9343,-1.9371,-1.9491,-1.9528,-1.9554,-1.9578,-1.9537,-1.9703,-1.9719,-1.9733,-1.9787,-1.9808,-1.9559,-1.9558,-1.9557,-1.9557,0,-1.9061,-1.9129,-1.9191,-1.925,-1.9291,-1.9371,-1.9374,-1.9417,-1.9406,-1.9416,-1.9514,-1.9546,-1.9612,-1.9639,-1.9629,-1.9758,-1.9738,-1.9703,-1.9642,-1.976,-1.981,-1.9831,-1.9566,-1.9564,-1.9562,-1.9561,0,0,-1.9252,-1.9301,-1.9324,-1.935,-1.9395,-1.9448,-1.9527,-1.9588,-1.9626,-1.9669,-1.9737,-1.9828,-1.9795,-1.9831,-1.9825,-1.9882,-2.0002,-1.984,-1.9841,-1.9871,-2.0148,-2.0176,-2.0199,-1.9986,-1.999,-1.9993,-2.0144,0,-1.9398,-1.9533,-1.9525,-1.9654,-1.9717,-1.9683,-1.9751,-1.9787,-1.9798,-1.9854,-1.9867,-1.9932,-1.9883,-1.9905,-1.9959,-1.9976,-2.0058,-1.9965,-2.0051,-2.0054,-2.0043,-2.0225,-2.0255,-2.0397,-2.0164,-2.0167,-2.0169,0,-1.9587,-1.9635,-1.9769,-1.9803,-1.983,-1.9892,-1.9947,-2.0001,-2.0041,-2.0044,-2.0083,-2.0067,-2.0148,-2.0082,-2.0195,-2.0131,-2.0165,-2.0179,-2.0184,-2.0195,-2.0121,-2.0243,-2.0442,-2.0464,-2.02,-2.0198,-2.0195,0,-1.9716,-1.9813,-1.9906,-1.9929,-1.9971,-2.0015,-2.0035,-2.007,-2.0108,-2.0157,-2.0181,-2.024,-2.0273,-2.0319,-2.0319,-2.0271,-2.0434,-2.0367,-2.0442,-2.0442,-2.048,-2.0478,-2.069,-2.0498,-2.0497,-2.0497,-2.0497,0,-1.9881,-1.9966,-1.9964,-2.0022,-2.0115,-2.0104,-2.0198,-2.0213,-2.0245,-2.0306,-2.0279,-2.0337,-2.0333,-2.0392,-2.0393,-2.0487,-2.0502,-2.0509,-2.0509,-2.0513,-2.0512,-2.0538,-2.0529,-2.0503,-2.0501,-2.05,-2.0499,0,-2.0042,-2.0044,-2.0143,-2.0174,-2.0183,-2.0251,-2.0278,-2.0333,-2.034,-2.0418,-2.0436,-2.0448,-2.0516,-2.052,-2.06,-2.06,-2.0715,-2.0703,-2.0701,-2.07,-2.0775,-2.0769,-2.1012,-2.1045,-2.0829,-2.0831,-2.0833,0,-2.0149,-2.0213,-2.0249,-2.0287,-2.0309,-2.0371,-2.0408,-2.04,-2.0441,-2.049,-2.054,-2.0604,-2.0656,-2.0767,-2.0785,-2.0845,-2.0836,-2.0917,-2.0845,-2.0847,-2.084,-2.0837,-2.0844,-2.0932,-2.0934,-2.0936,-2.0938,0,-2.034,-2.0337,-2.0391,-2.0446,-2.0491,-2.0534,-2.0573,-2.0606,-2.0603,-2.065,-2.0718,-2.0758,-2.0838,-2.0904,-2.0962,-2.0984,-2.0962,-2.096,-2.098,-2.0987,-2.0985,-2.0989,-2.0742,-2.0955,-2.0953,-2.0952,-2.0951,-2.095,-2.0479,-2.0534,-2.0568,-2.0629,-2.0657,-2.0695,-2.0748,-2.0761,-2.0817,-2.088,-2.0872,-2.0948,-2.0986,-2.1062,-2.1089,-2.1149,-2.1122,-2.1152,-2.116,-2.1168,-2.1177,-2.0972,-2.116,-2.1159,-2.1159,-2.1158,-2.1158,0,-2.067,-2.069,-2.0746,-2.0801,-2.085,-2.082,-2.0862,-2.0906,-2.0972,-2.1008,-2.1059,-2.1138,-2.1201,-2.1222,-2.1284,-2.1328,-2.132,-2.1345,-2.1343,-2.1349,-2.1197,-2.1174,-2.1351,-2.1351,-2.1351,-2.1351,-2.1351,-2.1351,-2.0776,-2.0868,-2.0869,-2.0975,-2.0994,-2.1067,-2.1094,-2.1129,-2.1157,-2.1246,-2.1297,-2.1309,-2.134,-2.1403,-2.146,-2.1464,-2.149,-2.152,-2.1521,-2.1379,-2.136,-2.1341,-2.132,-2.1525,-2.1525,-2.1669,-2.167,-2.1671]},{"header":{"parameterUnit":"m.s-1","parameterCategory":1,"la1":30.2991,"la2":30.254,"lo1":-89.0895,"lo2":-89.0444,"dy":0.0017,"dx":0.0017,"nx":28,"ny":28,"refTime":"2024-10-10T09:00:00:Z","depth":0,"parameterNumber":3,"parameterNumberName":"V-component_of_WINDS"},"data":[0,0,0,0,0,0,0,0,0,0,0,0,0,0,0,0,0,0,0,0,0,0,0,0,0,0,0,0,0,0,0,0,0,0,0,0,0,0,0,0,0,0,0,0,0,0,0,0,0,0,0,0,0,0,0,0,0,0,-4.0057,-4.0057,0,-4.0054,-4.0054,-4.0054,-3.9969,-3.9966,-3.9964,-3.9962,-3.996,-3.9962,-3.9964,0,0,0,0,0,0,0,0,0,0,0,0,0,-3.9986,-3.9988,-4.0057,-4.0057,-4.0057,-4.0054,-4.0054,-4.0054,-3.9969,-3.9966,-3.9963,-3.9961,-3.9959,-3.9962,-3.9964,0,0,0,0,0,0,0,0,0,0,0,0,0,-4.0004,-3.9989,-4.0057,-4.0014,-4.001,-4.0054,-4.0054,-4.0054,-3.9969,-3.9966,-3.9963,-3.996,-3.9959,-3.9961,-3.9964,-4.005,0,0,-3.9974,-3.9975,0,0,0,0,0,0,0,0,-4.0003,-4.0007,-4.002,-4.0017,-4.0013,-4.0008,-4.0029,-4.0053,-3.997,-3.9985,-3.9962,-3.9958,-3.9979,-3.998,-3.9987,-4.005,-4.005,-3.9974,-3.9976,-3.9977,-3.9978,0,0,0,0,0,0,0,-4.0002,-4.0006,-4.0056,-4.002,-4.0016,-3.9994,-3.9993,-4.0033,-4.0001,-3.9983,-3.9977,-3.9978,-3.9976,-3.9984,-3.9986,-4.005,-3.9974,-3.9977,-3.9979,-3.998,-4.0181,-4.0185,0,0,0,0,0,0,-4.0007,-4.0006,-4.0056,-4.0056,-3.9999,-3.9998,-3.9997,-4.0013,-4.0,-3.9995,-3.9981,-3.9974,-3.9981,-3.9983,-3.9986,-4.0084,-3.9977,-3.998,-3.9982,-4.0178,-4.0182,-4.0186,0,0,0,0,0,0,-4.0005,-4.0012,-4.0056,-4.0029,-4.0033,-4.0003,-4.0022,-4.0015,-4.0023,-3.9998,-3.9992,-3.9995,-3.9978,-3.9982,-4.0034,-4.0083,-3.9981,-3.9984,-4.0174,-4.0179,-4.0184,-4.0282,0,0,0,0,0,0,-4.0004,-4.0012,-4.0045,-4.003,-4.0035,-4.0105,-4.0025,-4.0017,-4.0028,-4.0019,-4.001,-4.0005,-3.9976,-4.003,-4.0037,-4.0085,-3.9986,-4.0169,-4.0176,-4.0182,-4.0274,-4.029,-4.0304,0,0,0,0,0,-4.0002,-4.0073,-4.0047,-4.0053,-4.0075,-4.0108,-4.011,-4.0075,-4.0032,-4.0064,-4.0048,-4.0005,-4.0077,-4.0036,-4.0044,-4.0093,-4.0166,-4.0174,-4.0182,-4.0268,-4.0287,-4.0303,0,0,0,0,0,0,-4.0094,-4.007,-4.0041,-4.011,-4.0111,-4.0093,-4.0133,-4.0097,-4.0111,-4.0102,-4.0058,-4.0056,-4.0116,-4.011,-4.0066,-4.0174,-4.0114,-4.0123,-4.0176,-4.0194,-4.0209,-4.0209,-3.9989,0,0,0,0,0,-4.0122,-4.0151,-4.0129,-4.0191,-4.0194,-4.0164,-4.0177,-4.0149,-4.0149,-4.015,-4.0138,-4.014,-4.0162,-4.0178,-4.0197,-4.0273,-4.0269,-4.0311,-4.0325,-4.0337,-4.0346,-4.0384,-4.0402,-4.0212,-4.0212,-4.0212,0,0,-4.0181,-4.0172,-4.0193,-4.021,-4.0208,-4.0239,-4.0165,-4.0201,-4.0223,-4.0155,-4.0204,-4.0195,-4.0194,-4.0259,-4.0286,-4.0255,-4.0398,-4.0347,-4.0357,-4.0359,-4.0395,-4.0413,-4.0429,-4.0218,-4.0217,-4.0216,0,0,-4.0304,-4.03,-4.0351,-4.035,-4.0348,-4.0327,-4.034,-4.0327,-4.0318,-4.0367,-4.0316,-4.0342,-4.0382,-4.0383,-4.0389,-4.0511,-4.0471,-4.0518,-4.0594,-4.0632,-4.0647,-4.066,-4.0703,-4.0719,-4.0527,-4.0527,-4.0528,0,-4.0377,-4.0421,-4.0382,-4.0421,-4.0429,-4.0369,-4.042,-4.0421,-4.0426,-4.0433,-4.0398,-4.0446,-4.0442,-4.0505,-4.0534,-4.0541,-4.0554,-4.0519,-4.0648,-4.0661,-4.0672,-4.0713,-4.0729,-4.0533,-4.0532,-4.0532,-4.0531,0,-4.0511,-4.0543,-4.0584,-4.0589,-4.0602,-4.0647,-4.0614,-4.0632,-4.0604,-4.0586,-4.0636,-4.0628,-4.0644,-4.0657,-4.063,-4.0716,-4.0697,-4.0656,-4.0594,-4.0697,-4.0734,-4.0749,-4.0541,-4.0539,-4.0538,-4.0536,0,0,-4.0693,-4.0674,-4.069,-4.0691,-4.0684,-4.0707,-4.0749,-4.0764,-4.078,-4.0785,-4.0819,-4.0854,-4.0815,-4.0822,-4.0794,-4.0827,-4.0923,-4.0782,-4.0781,-4.0808,-4.1017,-4.1047,-4.1066,-4.0897,-4.09,-4.0902,-4.1017,0,-4.0811,-4.0881,-4.0846,-4.092,-4.0947,-4.089,-4.0926,-4.0925,-4.091,-4.0931,-4.0914,-4.094,-4.0888,-4.0891,-4.0922,-4.0905,-4.0964,-4.0896,-4.0927,-4.0929,-4.0929,-4.1085,-4.1118,-4.1226,-4.1031,-4.1033,-4.1035,0,-4.0958,-4.0968,-4.1045,-4.1031,-4.1041,-4.1074,-4.1085,-4.1106,-4.1104,-4.109,-4.1097,-4.1061,-4.11,-4.1039,-4.1093,-4.1047,-4.1058,-4.1052,-4.1055,-4.1056,-4.0988,-4.109,-4.126,-4.1276,-4.1058,-4.1056,-4.1054,0,-4.1081,-4.1114,-4.1164,-4.1167,-4.1152,-4.1176,-4.1171,-4.1166,-4.1177,-4.1186,-4.1193,-4.1207,-4.1215,-4.1226,-4.1195,-4.1153,-4.1252,-4.1189,-4.1242,-4.1243,-4.1265,-4.1264,-4.1439,-4.1273,-4.1273,-4.1273,-4.1272,0,-4.1216,-4.1265,-4.1219,-4.125,-4.1302,-4.1262,-4.1315,-4.1304,-4.1299,-4.1326,-4.1278,-4.1304,-4.1261,-4.1284,-4.1259,-4.1307,-4.1311,-4.1301,-4.1294,-4.1305,-4.1306,-4.1311,-4.1302,-4.1277,-4.1276,-4.1275,-4.1275,0,-4.1363,-4.1334,-4.1385,-4.1366,-4.1362,-4.1402,-4.1386,-4.1413,-4.1394,-4.1429,-4.1435,-4.1406,-4.1429,-4.1399,-4.142,-4.1403,-4.1468,-4.145,-4.1469,-4.1463,-4.1518,-4.1513,-4.1701,-4.1724,-4.1545,-4.1547,-4.1548,0,-4.1451,-4.1487,-4.1472,-4.1486,-4.1484,-4.1508,-4.1518,-4.1479,-4.1493,-4.1492,-4.1519,-4.1538,-4.1552,-4.1592,-4.1573,-4.1588,-4.157,-4.1635,-4.1572,-4.1581,-4.157,-4.1568,-4.1571,-4.1647,-4.165,-4.1651,-4.1653,0,-4.161,-4.1593,-4.161,-4.1622,-4.1636,-4.1643,-4.1647,-4.1662,-4.1621,-4.1638,-4.1661,-4.1671,-4.1692,-4.1711,-4.1722,-4.1716,-4.1678,-4.1673,-4.1686,-4.1697,-4.1706,-4.1701,-4.1503,-4.1668,-4.1667,-4.1666,-4.1665,-4.1664,-4.1729,-4.1758,-4.1751,-4.1771,-4.177,-4.1774,-4.1799,-4.1782,-4.1801,-4.1814,-4.179,-4.1819,-4.1814,-4.1824,-4.1823,-4.1845,-4.1817,-4.1836,-4.1841,-4.1846,-4.1854,-4.1703,-4.1847,-4.1846,-4.1846,-4.1845,-4.1845,0,-4.1885,-4.1877,-4.1896,-4.1902,-4.1918,-4.1879,-4.1881,-4.1897,-4.1923,-4.1922,-4.1935,-4.1962,-4.198,-4.1962,-4.1977,-4.1998,-4.1981,-4.2003,-4.2001,-4.2,-4.1878,-4.1865,-4.2017,-4.2017,-4.2017,-4.2017,-4.2017,-4.2016,-4.1967,-4.2013,-4.1996,-4.2041,-4.2032,-4.206,-4.2064,-4.2068,-4.2066,-4.2097,-4.2112,-4.21,-4.2092,-4.2105,-4.212,-4.2114,-4.2122,-4.2151,-4.2139,-4.2025,-4.2009,-4.1993,-4.198,-4.2153,-4.2153,-4.2258,-4.2259,-4.226]}]]